ELY5137 LLBG-LCPH

Flight info

Callsign ELY5137
Flight time 0h 43m
Altitude 28000
Route DAFNA W13 VELOX M42 ESERI
Aircraft B738/M-SDE2E3FGHIRWXY/LB1

Departure

Time 2026-04-21 18:12
Airport Ben Gurion International Airport (LLBG)

Arrival

Time 2026-04-21 18:56
Airport Paphos International Airport (LCPH)
Time Latitude Longitude Altitude Speed Heading
2026-04-21 17:31 32.00630 34.87434 119 ft 0 kts 221°
2026-04-21 17:56 32.00643 34.87448 98 ft 4 kts 222°
2026-04-21 17:56 32.00662 34.87469 121 ft 4 kts 216°
2026-04-21 17:57 32.00685 34.87481 118 ft 4 kts 174°
2026-04-21 17:57 32.00705 34.87469 114 ft 3 kts 125°
2026-04-21 17:57 32.00718 34.87448 117 ft 4 kts 122°
2026-04-21 17:57 32.00732 34.87421 116 ft 4 kts 120°
2026-04-21 17:58 32.00745 34.87394 114 ft 4 kts 118°
2026-04-21 17:58 32.00755 34.87365 116 ft 4 kts 98°
2026-04-21 17:58 32.00755 34.87334 116 ft 4 kts 79°
2026-04-21 17:58 32.00749 34.87304 116 ft 4 kts 76°
2026-04-21 17:59 32.00743 34.87273 115 ft 4 kts 76°
2026-04-21 17:59 32.00736 34.87242 115 ft 4 kts 76°
2026-04-21 17:59 32.00731 34.87214 117 ft 1 kts 76°
2026-04-21 17:59 32.00730 34.87213 117 ft 0 kts 76°
2026-04-21 18:02 32.00731 34.87214 117 ft 1 kts 76°
2026-04-21 18:02 32.00735 34.87236 116 ft 4 kts 76°
2026-04-21 18:02 32.00743 34.87277 116 ft 9 kts 75°
2026-04-21 18:02 32.00794 34.87339 119 ft 12 kts 31°
2026-04-21 18:03 32.00816 34.87419 119 ft 11 kts 118°
2026-04-21 18:03 32.00775 34.87498 118 ft 11 kts 122°
2026-04-21 18:03 32.00735 34.87574 116 ft 11 kts 121°
2026-04-21 18:03 32.00697 34.87650 118 ft 11 kts 121°
2026-04-21 18:04 32.00659 34.87722 117 ft 10 kts 122°
2026-04-21 18:04 32.00622 34.87792 117 ft 10 kts 121°
2026-04-21 18:04 32.00601 34.87833 116 ft 0 kts 121°
2026-04-21 18:07 32.00600 34.87836 119 ft 1 kts 121°
2026-04-21 18:07 32.00582 34.87880 117 ft 9 kts 102°
2026-04-21 18:07 32.00617 34.87938 117 ft 9 kts 33°
2026-04-21 18:08 32.00673 34.87980 117 ft 10 kts 32°
2026-04-21 18:08 32.00745 34.88032 115 ft 14 kts 32°
2026-04-21 18:08 32.00836 34.88099 117 ft 16 kts 32°
2026-04-21 18:08 32.00932 34.88167 118 ft 16 kts 31°
2026-04-21 18:09 32.01040 34.88245 117 ft 20 kts 32°
2026-04-21 18:09 32.01170 34.88340 119 ft 23 kts 31°
2026-04-21 18:09 32.01299 34.88445 118 ft 22 kts 43°
2026-04-21 18:09 32.01399 34.88580 117 ft 22 kts 54°
2026-04-21 18:10 32.01471 34.88732 118 ft 21 kts 68°
2026-04-21 18:10 32.01505 34.88897 117 ft 20 kts 79°
2026-04-21 18:10 32.01530 34.89058 119 ft 20 kts 79°
2026-04-21 18:10 32.01588 34.89163 117 ft 15 kts
2026-04-21 18:11 32.01691 34.89141 117 ft 15 kts 349°
2026-04-21 18:11 32.01741 34.89065 118 ft 14 kts 260°
2026-04-21 18:11 32.01706 34.88834 120 ft 60 kts 260°
2026-04-21 18:11 32.01589 34.88066 115 ft 128 kts 259°
2026-04-21 18:12 32.01431 34.86822 277 ft 167 kts 264°
2026-04-21 18:12 32.01243 34.85483 1096 ft 164 kts 259°
2026-04-21 18:12 32.00998 34.84163 1882 ft 167 kts 258°
2026-04-21 18:12 32.00701 34.82784 2619 ft 181 kts 257°
2026-04-21 18:13 32.00377 34.81312 3411 ft 191 kts 256°
2026-04-21 18:13 32.00039 34.79755 4144 ft 202 kts 256°
2026-04-21 18:13 31.99683 34.78092 4643 ft 219 kts 256°
2026-04-21 18:13 31.99309 34.76277 5081 ft 238 kts 262°
2026-04-21 18:14 31.99925 34.72157 6371 ft 267 kts 291°
2026-04-21 18:14 32.00589 34.70104 7327 ft 269 kts 291°
2026-04-21 18:14 32.01258 34.68035 8268 ft 272 kts 291°
2026-04-21 18:15 32.01923 34.65940 9203 ft 275 kts 291°
2026-04-21 18:15 32.02572 34.63809 10121 ft 278 kts 288°
2026-04-21 18:15 32.03446 34.61724 10583 ft 298 kts 311°
2026-04-21 18:15 32.05143 34.60156 10806 ft 324 kts 327°
2026-04-21 18:16 32.07141 34.58771 11287 ft 339 kts 329°
2026-04-21 18:16 32.09198 34.57373 12079 ft 343 kts 328°
2026-04-21 18:16 32.11253 34.55938 12974 ft 344 kts 327°
2026-04-21 18:16 32.13278 34.54480 13808 ft 347 kts 327°
2026-04-21 18:17 32.15335 34.52960 14544 ft 351 kts 326°
2026-04-21 18:17 32.17407 34.51403 15260 ft 355 kts 326°
2026-04-21 18:17 32.19497 34.49816 15976 ft 359 kts 325°
2026-04-21 18:17 32.21635 34.48183 16701 ft 363 kts 325°
2026-04-21 18:18 32.23736 34.46573 17393 ft 367 kts 325°
2026-04-21 18:18 32.25886 34.44921 18087 ft 371 kts 325°
2026-04-21 18:18 32.28063 34.43248 18723 ft 375 kts 325°
2026-04-21 18:18 32.30254 34.41563 19363 ft 377 kts 325°
2026-04-21 18:19 32.32589 34.40112 19964 ft 383 kts 336°
2026-04-21 18:19 32.35165 34.39203 20567 ft 390 kts 345°
2026-04-21 18:19 32.37849 34.38627 21168 ft 394 kts 347°
2026-04-21 18:19 32.40561 34.38086 21737 ft 397 kts 347°
2026-04-21 18:20 32.43300 34.37547 22292 ft 401 kts 347°
2026-04-21 18:20 32.46061 34.36999 22852 ft 404 kts 346°
2026-04-21 18:20 32.48839 34.36438 23405 ft 407 kts 346°
2026-04-21 18:20 32.51637 34.35866 23878 ft 410 kts 346°
2026-04-21 18:21 32.54455 34.35283 24330 ft 412 kts 346°
2026-04-21 18:21 32.57287 34.34694 24804 ft 415 kts 346°
2026-04-21 18:21 32.60139 34.34098 25245 ft 417 kts 346°
2026-04-21 18:21 32.63004 34.33498 25678 ft 419 kts 345°
2026-04-21 18:22 32.65880 34.32896 26193 ft 419 kts 345°
2026-04-21 18:22 32.68742 34.32298 26833 ft 416 kts 345°
2026-04-21 18:22 32.71578 34.31705 27505 ft 412 kts 345°
2026-04-21 18:22 32.74403 34.31113 28014 ft 413 kts 345°
2026-04-21 18:23 32.77230 34.30519 28021 ft 412 kts 345°
2026-04-21 18:23 32.82874 34.29331 28057 ft 413 kts 345°
2026-04-21 18:24 32.88540 34.28137 28065 ft 414 kts 345°
2026-04-21 18:24 32.94214 34.26941 28059 ft 414 kts 345°
2026-04-21 18:25 32.99887 34.25744 28059 ft 414 kts 345°
2026-04-21 18:25 33.05519 34.24554 28059 ft 413 kts 345°
2026-04-21 18:26 33.11184 34.23356 28058 ft 413 kts 345°
2026-04-21 18:26 33.16843 34.22157 28058 ft 413 kts 345°
2026-04-21 18:27 33.22201 34.20077 28066 ft 401 kts 324°
2026-04-21 18:27 33.26309 34.15706 28070 ft 395 kts 308°
2026-04-21 18:28 33.29922 34.10741 28055 ft 397 kts 308°
2026-04-21 18:28 33.33557 34.05768 28056 ft 398 kts 309°
2026-04-21 18:29 33.37220 34.00784 28056 ft 400 kts 309°
2026-04-21 18:29 33.40906 33.95778 28058 ft 402 kts 309°
2026-04-21 18:30 33.44602 33.90754 28055 ft 403 kts 309°
2026-04-21 18:30 33.48307 33.85712 28054 ft 403 kts 309°
2026-04-21 18:31 33.52007 33.80670 28051 ft 403 kts 309°
2026-04-21 18:31 33.55702 33.75627 28054 ft 402 kts 309°
2026-04-21 18:32 33.59387 33.70589 28052 ft 402 kts 309°
2026-04-21 18:32 33.63068 33.65551 28051 ft 401 kts 309°
2026-04-21 18:33 33.66733 33.60527 28038 ft 395 kts 309°
2026-04-21 18:33 33.68514 33.58086 28039 ft 383 kts 309°
2026-04-21 18:33 33.70263 33.55687 28046 ft 381 kts 309°
2026-04-21 18:34 33.73760 33.50876 27861 ft 385 kts 309°
2026-04-21 18:34 33.75516 33.48460 27510 ft 380 kts 309°
2026-04-21 18:34 33.77246 33.46079 27070 ft 376 kts 309°
2026-04-21 18:34 33.78957 33.43722 26599 ft 372 kts 309°
2026-04-21 18:35 33.80081 33.42173 26303 ft 370 kts 309°
2026-04-21 18:35 33.82331 33.39069 25697 ft 366 kts 309°
2026-04-21 18:35 33.83997 33.36768 25246 ft 363 kts 309°
2026-04-21 18:35 33.85651 33.34484 24811 ft 361 kts 309°
2026-04-21 18:36 33.87294 33.32212 24367 ft 359 kts 309°
2026-04-21 18:36 33.88928 33.29952 23915 ft 357 kts 310°
2026-04-21 18:36 33.90558 33.27695 23435 ft 356 kts 310°
2026-04-21 18:36 33.92178 33.25452 22942 ft 354 kts 310°
2026-04-21 18:37 33.93786 33.23224 22472 ft 351 kts 309°
2026-04-21 18:37 33.95383 33.21010 22029 ft 348 kts 309°
2026-04-21 18:37 33.96944 33.18844 21602 ft 346 kts 309°
2026-04-21 18:37 33.98005 33.17372 21310 ft 344 kts 309°
2026-04-21 18:38 34.00074 33.14498 20741 ft 341 kts 309°
2026-04-21 18:38 34.01120 33.13043 20461 ft 339 kts 309°
2026-04-21 18:38 34.03160 33.10206 19909 ft 337 kts 309°
2026-04-21 18:38 34.04690 33.08077 19506 ft 335 kts 309°
2026-04-21 18:39 34.06214 33.05955 19079 ft 334 kts 309°
2026-04-21 18:39 34.07240 33.04525 18803 ft 333 kts 309°
2026-04-21 18:39 34.08753 33.02416 18387 ft 332 kts 309°
2026-04-21 18:39 34.10264 33.00309 17917 ft 331 kts 309°
2026-04-21 18:40 34.11747 32.98239 17479 ft 330 kts 309°
2026-04-21 18:40 34.13243 32.96150 17056 ft 328 kts 309°
2026-04-21 18:40 34.14727 32.94075 16642 ft 325 kts 309°
2026-04-21 18:40 34.16202 32.92013 16235 ft 323 kts 309°
2026-04-21 18:41 34.17665 32.89966 15830 ft 322 kts 309°
2026-04-21 18:41 34.19125 32.87923 15429 ft 320 kts 309°
2026-04-21 18:41 34.20573 32.85896 15042 ft 318 kts 309°
2026-04-21 18:41 34.22016 32.83873 14640 ft 317 kts 309°
2026-04-21 18:42 34.23453 32.81858 14251 ft 316 kts 309°
2026-04-21 18:42 34.24883 32.79850 13850 ft 315 kts 309°
2026-04-21 18:42 34.26310 32.77848 13410 ft 314 kts 309°
2026-04-21 18:42 34.27730 32.75854 12989 ft 312 kts 309°
2026-04-21 18:43 34.29146 32.73865 12581 ft 311 kts 309°
2026-04-21 18:43 34.30499 32.71834 12135 ft 310 kts 304°
2026-04-21 18:43 34.31704 32.69665 11693 ft 310 kts 302°
2026-04-21 18:43 34.32856 32.67464 11291 ft 309 kts 301°
2026-04-21 18:44 34.34000 32.65262 10898 ft 308 kts 301°
2026-04-21 18:44 34.35144 32.63076 10551 ft 306 kts 302°
2026-04-21 18:44 34.36270 32.60938 10393 ft 297 kts 302°
2026-04-21 18:44 34.37370 32.58863 10253 ft 288 kts 302°
2026-04-21 18:45 34.38439 32.56853 10126 ft 280 kts 302°
2026-04-21 18:45 34.39478 32.54900 9992 ft 272 kts 302°
2026-04-21 18:45 34.40502 32.52977 9686 ft 271 kts 302°
2026-04-21 18:45 34.41520 32.51065 9398 ft 269 kts 302°
2026-04-21 18:46 34.42530 32.49166 9097 ft 267 kts 302°
2026-04-21 18:46 34.43535 32.47280 8805 ft 266 kts 302°
2026-04-21 18:46 34.44534 32.45403 8522 ft 264 kts 302°
2026-04-21 18:46 34.45527 32.43534 8234 ft 263 kts 302°
2026-04-21 18:47 34.46515 32.41676 7986 ft 260 kts 302°
2026-04-21 18:47 34.47584 32.39956 7821 ft 256 kts 320°
2026-04-21 18:47 34.49198 32.39105 7409 ft 264 kts 352°
2026-04-21 18:47 34.51024 32.39319 7073 ft 268 kts 17°
2026-04-21 18:48 34.52644 32.40465 6546 ft 275 kts 42°
2026-04-21 18:48 34.53776 32.42326 6014 ft 276 kts 61°
2026-04-21 18:48 34.54619 32.44420 5561 ft 274 kts 64°
2026-04-21 18:48 34.55400 32.46479 5364 ft 269 kts 64°
2026-04-21 18:49 34.56184 32.48536 5080 ft 268 kts 64°
2026-04-21 18:49 34.56975 32.50586 4790 ft 268 kts 64°
2026-04-21 18:49 34.57512 32.51964 4587 ft 268 kts 64°
2026-04-21 18:49 34.58564 32.54647 4319 ft 261 kts 64°
2026-04-21 18:50 34.59338 32.56611 4183 ft 254 kts 64°
2026-04-21 18:50 34.60091 32.58516 4068 ft 247 kts 63°
2026-04-21 18:50 34.60817 32.60349 3987 ft 234 kts 63°
2026-04-21 18:50 34.61503 32.62082 3878 ft 222 kts 63°
2026-04-21 18:51 34.62158 32.63736 3696 ft 214 kts 63°
2026-04-21 18:51 34.62791 32.65334 3499 ft 206 kts 63°
2026-04-21 18:51 34.63685 32.66609 3233 ft 197 kts 24°
2026-04-21 18:51 34.64970 32.66744 2983 ft 185 kts 336°
2026-04-21 18:52 34.65878 32.65758 2813 ft 173 kts 303°
2026-04-21 18:52 34.66626 32.64602 2572 ft 174 kts 304°
2026-04-21 18:52 34.67208 32.63326 2354 ft 172 kts 296°
2026-04-21 18:52 34.67702 32.62019 2122 ft 169 kts 291°
2026-04-21 18:53 34.68119 32.60704 1898 ft 163 kts 290°
2026-04-21 18:53 34.68495 32.59466 1732 ft 148 kts 290°
2026-04-21 18:53 34.68850 32.58286 1499 ft 147 kts 290°
2026-04-21 18:53 34.69196 32.57136 1286 ft 143 kts 290°
2026-04-21 18:54 34.69539 32.56017 1068 ft 141 kts 290°
2026-04-21 18:54 34.69884 32.54902 910 ft 141 kts 290°
2026-04-21 18:54 34.70212 32.53771 746 ft 144 kts 291°
2026-04-21 18:54 34.70560 32.52628 588 ft 143 kts 291°
2026-04-21 18:55 34.70780 32.51880 430 ft 142 kts 291°
2026-04-21 18:55 34.71240 32.50369 176 ft 144 kts 291°
2026-04-21 18:55 34.71589 32.49232 42 ft 138 kts 292°
2026-04-21 18:55 34.71849 32.48379 41 ft 77 kts 291°
2026-04-21 18:56 34.71960 32.48017 44 ft 29 kts 300°
2026-04-21 18:56 34.71994 32.47923 44 ft 7 kts 238°
2026-04-21 18:56 34.71965 32.47952 44 ft 8 kts 101°
2026-04-21 18:56 34.71948 32.48053 42 ft 14 kts 108°
2026-04-21 18:57 34.71912 32.48165 44 ft 14 kts 111°
2026-04-21 18:57 34.71878 32.48272 43 ft 13 kts 111°
2026-04-21 18:57 34.71847 32.48374 42 ft 13 kts 107°
2026-04-21 18:57 34.71781 32.48410 43 ft 12 kts 200°
2026-04-21 18:58 34.71702 32.48381 43 ft 12 kts 172°
2026-04-21 18:58 34.71653 32.48453 40 ft 12 kts 109°
2026-04-21 18:58 34.71625 32.48543 42 ft 11 kts 111°
2026-04-21 18:58 34.71596 32.48635 42 ft 13 kts 111°
2026-04-21 18:59 34.71561 32.48747 43 ft 15 kts 110°
2026-04-21 18:59 34.71526 32.48865 43 ft 13 kts 110°
2026-04-21 18:59 34.71480 32.48892 43 ft 9 kts 241°
2026-04-21 18:59 34.71462 32.48817 42 ft 9 kts 249°
2026-04-21 19:00 34.71413 32.48815 43 ft 9 kts 148°
2026-04-21 19:00 34.71378 32.48839 43 ft 3 kts 156°
2026-04-21 19:00 34.71366 32.48845 43 ft 1 kts 156°
2026-04-21 19:00 34.71366 32.48846 43 ft 0 kts 156°